This is the latest recevied weather packets stored in our database for station/object W5LND-10. If no packets are shown the sender has not sent any weather packets the latest 10 day(s).
| Time | Temp. | Humidity | Pressure | Rain* | Wind** | Luminosity | Snow |
|---|---|---|---|---|---|---|---|
| 1777746078 | 19.44° C | 46% | 1021.8 hPa | 0 mm | - | 385 W/m² | - |
| 1777745778 | 19.44° C | 45% | 1021.8 hPa | 0 mm | - | 397 W/m² | - |
| 1777745478 | 19.44° C | 45% | 1021.8 hPa | 0 mm | - | 464 W/m² | - |
| 1777745178 | 19.44° C | 46% | 1021.8 hPa | 0 mm | - | 485 W/m² | - |
| 1777744878 | 19.44° C | 46% | 1021.8 hPa | 0 mm | - | 497 W/m² | - |
| 1777744578 | 19.44° C | 47% | 1022 hPa | 0 mm | - | 617 W/m² | - |
| 1777744278 | 18.89° C | 47% | 1022 hPa | 0 mm | - | 520 W/m² | - |
| 1777743978 | 18.89° C | 48% | 1022.1 hPa | 0 mm | - | 599 W/m² | - |
| 1777743678 | 18.89° C | 46% | 1022.1 hPa | 0 mm | - | 489 W/m² | - |
| 1777743378 | 18.89° C | 46% | 1022.1 hPa | 0 mm | - | 483 W/m² | - |
| 1777743078 | 18.89° C | 47% | 1022.3 hPa | 0 mm | - | 441 W/m² | - |
| 1777742778 | 18.89° C | 46% | 1022.3 hPa | 0 mm | - | 364 W/m² | - |
| 1777742478 | 18.89° C | 46% | 1022.2 hPa | 0 mm | - | 352 W/m² | - |
| 1777742178 | 18.89° C | 47% | 1022.3 hPa | 0 mm | - | 330 W/m² | - |
| 1777741878 | 18.89° C | 47% | 1022.3 hPa | 0 mm | - | 476 W/m² | - |
| 1777741578 | 18.89° C | 46% | 1022.3 hPa | 0 mm | - | 276 W/m² | - |
| 1777741278 | 19.44° C | 48% | 1022.3 hPa | 0 mm | - | 292 W/m² | - |
| 1777740978 | 19.44° C | 47% | 1022.3 hPa | 0 mm | - | 1153 W/m² | - |
| 1777740678 | 19.44° C | 47% | 1022.5 hPa | 0 mm | - | 1090 W/m² | - |
| 1777740378 | 18.89° C | 49% | 1022.4 hPa | 0 mm | - | 1090 W/m² | - |
| 1777740078 | 18.33° C | 49% | 1022.5 hPa | 0 mm | - | 1069 W/m² | - |
| 1777739778 | 17.78° C | 48% | 1022.7 hPa | 0 mm | - | 1078 W/m² | - |
| 1777739479 | 18.33° C | 49% | 1022.6 hPa | 0 mm | - | 1025 W/m² | - |
| 1777739178 | 18.33° C | 49% | 1022.6 hPa | 0 mm | - | 327 W/m² | - |
| 1777738879 | 18.33° C | 49% | 1022.7 hPa | 0 mm | - | 343 W/m² | - |
* Rain latest hour (hover to see other rain measurements)
** Current wind speed in m/s (hover to see current wind gust speed)